Regional Weather Roundup
Issued by NWS Albany, NY

Home | Current Version | Previous Version | Text Only | Print | Product List | Glossary On
Versions: 1 2 3 4 5 6 7 8 9 10 11 12 13 14 15 16 17 18 19 20 21 22 23 24 25 26 27 28 29 30 31 32 33 34 35 36 37 38 39 40 41 42 43 44 45 46 47 48 49 50
000
ASUS41 KALY 010810
RWRALY

NEW YORK STATE HOURLY WEATHER ROUNDUP
NATIONAL WEATHER SERVICE ALBANY NY
400 AM EDT FRI AUG 01 2014

NOTE: "FAIR" INDICATES FEW OR NO CLOUDS BELOW 12,000 FEET WITH NO
SIGNIFICANT WEATHER AND/OR NO OBSTRUCTIONS TO VISIBILITY.

NYZ032-033-038>043-046>054-057>066-NYZ062>081-010900-
EAST


CITY           SKY/WX    TMP DP  RH WIND       PRES   REMARKS
ALBANY         PTCLDY    61  59  93 CALM      30.15R
GLENS FALLS    CLEAR     56  53  90 CALM      30.14S
POUGHKEEPSIE   CLEAR     63  61  93 CALM      30.15R
NEWBURGH       MOCLDY    63  61  94 CALM      30.17R
MONTGOMERY     CLOUDY    61  59  93 CALM      30.15S
WHITE PLAINS   CLEAR     65  64  97 CALM      30.17R FOG
ISLIP          PTCLDY    73  68  84 SW7       30.17R
NEW YORK CITY  MOCLDY    73  66  78 SW8       30.16R
CENTRAL PARK   PTCLDY    72  65  78 VRB3      30.19S
$$

NYZ005>009-017-018-044>046-055-056-010900-
CENTRAL


CITY           SKY/WX    TMP DP  RH WIND       PRES   REMARKS
FULTON         PTCLDY    59  57  93 SE5       30.10F
SYRACUSE       PTCLDY    59  57  93 CALM      30.11S
ROME           CLEAR     56  55  97 CALM      30.14S
ELMIRA         FOG       50  50 100 CALM      30.14S VSB 3/4
BINGHAMTON     CLEAR     60  57  89 S5        30.16S
MONTICELLO     MOCLDY    57  55  94 CALM      30.19S
$$

NYZ026>034-041>043-010900-
NORTH


CITY           SKY/WX    TMP DP  RH WIND       PRES   REMARKS
WATERTOWN      CLEAR     61  53  75 S6        30.08S
FORT DRUM      NOT AVBL
MASSENA        CLEAR     54  53  97 CALM      30.09R
SARANAC LAKE   FOG       42  42 100 CALM      30.14R VSB 1/2
PLATTSBURGH    CLEAR     52  52 100 CALM      30.11R FOG
$$

NYZ001>004-010>016-019>021-010900-
WEST


CITY           SKY/WX    TMP DP  RH WIND       PRES   REMARKS
NIAGARA FALLS  LGT RAIN  65  59  81 SW6       30.07S
BUFFALO        LGT RAIN  63  57  81 SE3       30.08S
DUNKIRK        MOCLDY    64  52  64 CALM      30.08R
JAMESTOWN      CLEAR     55  52  88 S7        30.13S
WELLSVILLE     CLEAR     58  53  84 CALM      30.17S
ROCHESTER      CLOUDY    61  57  87 SW6       30.09S
PENN YAN       CLEAR     60  58  92 SW7       30.13S
$$

             KEY
       WCI = WIND CHILL INDEX
       VSB = VISIBILITY
       HX  = HEAT INDEX
$$



USA.gov is the U.S. government's official web portal to all federal, state and local government web resources and services.